星链-30913 (STARLINK-30913 )

导读 | 星芒AI

STARLINK-30913 是 SpaceX Starlink 卫星互联网项目中的第 30913 颗卫星。该卫星属于 Starlink 群体的中轨道卫星,旨在为全球用户提供高速、低延迟的互联网服务。它于近期由 SpaceX 的猎鹰 9 号火箭发射升空,部署在近地轨道,与其他 Starlink 卫星协同工作,扩大网络覆盖范围。该系统特别关注偏远和网络基础设施薄弱地区的连接能力,推动全球数字化进程。

基本信息
目录编号:
58388
目录名称:
STARLINK-30913
国际标识:
2023-178Q
轨道中心:
EARTH
卫星名称:
星链-30913
卫星全名:
星链-30913 (STARLINK-30913 )
卫星状态:
在轨 (已飞行711 天)
发射日期:
2023-11-20 UTC
国别 :
美国 (US)
星等 :
--
轨道信息
数据来源 国际轨道数据
星历时间: 2025-10-31T09:48:01+0800
11小时前
查看轨道信息
半长轴: 6853.384km
偏心率: 0.0001197
轨道倾角: 53.161°
近地点辐角 97.363°
升交点赤经 243.348°
平近点角 262.751°
近地点: 474.428km
远地点: 476.07km
周期: 94.106分钟
每日圈数: 15.301894
详细信息
固有亮度:
5
最大亮度:
0.3
卫星平台:
Starlink v2.0 mini
覆盖范围:
全球
运营商:
太空探索技术公司
运营商所在国:
美国
制造商(研发单位):
太空探索技术公司
制造商所在国:
美国
使用方式:
暂无
卫星简介
星链(Starlink)计划是由太空探索技术公司(SpaceX)提出的一个巨型低轨卫星互联网星座项目,计划在2019年至2024年间在太空搭建由约1.2万颗卫星组成的“星链”网络,其中1584颗将部署在地球上空550千米处的近地轨道,并从2020年开始工作。该卫星仍在工作。
2D轨道图
3D轨道图
轨道高度分析图
轨道倾角分析图
轨道综合分析图
查看轨道综合分析图